{"data":{"norad_id":67308,"intl_designator":"2026-002D","name":"STARLINK-36449","alt_names":[],"object_type":"PAYLOAD","status":"ACTIVE","operator":null,"country":"US","launch_date":"2026-01-04","launch_site_code":"AFETR","launch_vehicle":null,"mission":null,"orbit_class":"UNKNOWN","rcs_meters":null,"size_class":null,"mass_kg":null,"dimensions":null,"purposes":["comms"],"wikipedia_slug":null,"has_3d_model":false,"image_url":null,"decayed_at":null,"tle_current":{"epoch":"2026-09-19T11:02:55.892832Z","epoch_age_seconds":165220,"freshness":"FRESH","line1":"1 67308U 26002D   26262.46036913  .00009120  00000+0  34051-3 0  9991","line2":"2 67308  43.0028 310.9535 0002175 292.4820  67.5801 15.27581597 40776","mean_motion":15.27581597,"eccentricity":0.0002175,"inclination_deg":43.0028,"raan_deg":310.9535,"arg_perigee_deg":292.482,"mean_anomaly_deg":67.5801,"bstar":0.00034051,"rev_number":4077,"period_min":94.266650163107,"perigee_km":481.5520071155,"apogee_km":484.53662098711,"semimajor_km":6861.1813140513,"source":"CELESTRAK","updated_at":"2026-09-20T09:00:43.502742Z"}}}